User: anonymous   Login
Location: State Camp
(41.2367°N, 77.7828°W)
Time: 08:09:36
(UTC-04:00)
Language:

ADEOS Rocket - Orbit

View from above orbital plane
View from above orbital plane
View from above satellite
View from above satellite

Ground track
Ground track

The orbit data is extracted from the following two-line orbital elements,

1 24279U 96046C   16210.63398095 -.00000007  00000-0  35471-4 0  9994
2 24279  98.7049 189.3187 0300881  34.0188  91.2753 13.47054921980688
Epoch (UTC): 28 July 2016 15:12:55
Eccentricity: 0.0300881
inclination: 98.7049°
perigee height: 858 km
apogee height: 1307 km
right ascension of ascending node: 189.3187°
argument of perigee: 34.0188°
revolutions per day: 13.47054921
mean anomaly at epoch: 91.2753°
orbit number at epoch: 98068

The dashed part of the orbit path shows where the satellite is in the earth's shadow,  

DLR